• în România
  • Lista ţărilor
  • Pe 7 zile
  • Temperatura apei
  • Hartă satelitară
  • Meteo pe hartă
  • Widget-uri
  • user-avatar
    Intrare

    Meteo pe oră la Ischgl

    Astăzi, 18 Ianuarie, Miercuri

    Timp Temperatura Precipitaţii Vânt Presiune Umiditate
    00:00 -24°C° 0 mm 1 m/s 565 mmHg 96%
    01:00 -26°C° 0 mm 2 m/s 566 mmHg 94%
    02:00 -26°C° 0 mm 2 m/s 566 mmHg 94%
    03:00 -24°C° 0 mm 1 m/s 565 mmHg 94%
    04:00 -24°C° 0 mm 1 m/s 565 mmHg 94%
    05:00 -24°C° 0 mm 1 m/s 565 mmHg 93%
    06:00 -24°C° 0 mm 1 m/s 565 mmHg 92%
    07:00 -24°C° 0 mm 1 m/s 565 mmHg 92%
    08:00 -21°C° 0 mm 1 m/s 567 mmHg 91%
    09:00 -17°C° 0 mm 1 m/s 570 mmHg 91%
    10:00 -13°C° 0 mm 1 m/s 572 mmHg 91%
    11:00 -12°C° 0 mm 1 m/s 573 mmHg 92%
    12:00 -11°C° 0 mm 1 m/s 573 mmHg 92%
    13:00 -9°C° 0 mm 1 m/s 574 mmHg 93%
    14:00 -10°C° 0 mm 1 m/s 573 mmHg 94%
    15:00 -11°C° 0 mm 1 m/s 572 mmHg 95%
    16:00 -12°C° 0 mm 1 m/s 572 mmHg 96%
    17:00 -16°C° 0 mm 1 m/s 570 mmHg 97%
    18:00 -19°C° 0 mm 1 m/s 568 mmHg 97%
    19:00 -23°C° 0 mm 1 m/s 566 mmHg 98%
    20:00 -23°C° 0 mm 1 m/s 566 mmHg 97%
    21:00 -23°C° 0 mm 1 m/s 566 mmHg 96%
    22:00 -24°C° 0 mm 1 m/s 566 mmHg 95%
    23:00 -23°C° 0 mm 1 m/s 566 mmHg 93%

    Mâine, 19 Ianuarie, Joi

    Timp Temperatura Precipitaţii Vânt Presiune Umiditate
    00:00 -23°C° 0 mm 1 m/s 567 mmHg 92%
    01:00 -22°C° 0 mm 1 m/s 567 mmHg 91%
    02:00 -22°C° 0 mm 1 m/s 567 mmHg 91%
    03:00 -22°C° 0 mm 1 m/s 568 mmHg 91%
    04:00 -21°C° 0 mm 1 m/s 568 mmHg 91%
    05:00 -22°C° 0 mm 1 m/s 568 mmHg 91%
    06:00 -22°C° 0 mm 1 m/s 568 mmHg 91%
    07:00 -22°C° 0 mm 1 m/s 568 mmHg 91%
    08:00 -19°C° 0 mm 1 m/s 570 mmHg 90%
    09:00 -15°C° 0 mm 1 m/s 572 mmHg 90%
    10:00 -12°C° 0 mm 1 m/s 574 mmHg 90%
    11:00 -10°C° 0 mm 1 m/s 575 mmHg 91%
    12:00 -9°C° 0 mm 1 m/s 576 mmHg 91%
    13:00 -7°C° 0 mm 1 m/s 576 mmHg 92%
    14:00 -9°C° 0 mm 1 m/s 575 mmHg 93%
    15:00 -10°C° 0 mm 1 m/s 575 mmHg 95%
    16:00 -11°C° 0 mm 1 m/s 574 mmHg 96%
    17:00 -14°C° 0 mm 1 m/s 572 mmHg 96%
    18:00 -16°C° 0 mm 1 m/s 571 mmHg 95%
    19:00 -19°C° 0 mm 1 m/s 570 mmHg 95%
    20:00 -19°C° 0 mm 1 m/s 570 mmHg 94%
    21:00 -19°C° 0 mm 1 m/s 570 mmHg 93%
    22:00 -21°C° 0 mm 2 m/s 570 mmHg 92%
    23:00 -21°C° 0 mm 2 m/s 570 mmHg 92%

    Poimâine, 20 Ianuarie, Vineri

    Timp Temperatura Precipitaţii Vânt Presiune Umiditate
    00:00 -21°C° 0 mm 2 m/s 570 mmHg 92%
    01:00 -21°C° 0 mm 2 m/s 570 mmHg 91%
    02:00 -21°C° 0 mm 2 m/s 570 mmHg 91%
    03:00 -21°C° 0 mm 2 m/s 570 mmHg 91%
    04:00 -21°C° 0 mm 2 m/s 570 mmHg 91%
    05:00 -21°C° 0 mm 2 m/s 570 mmHg 91%
    06:00 -21°C° 0 mm 2 m/s 570 mmHg 91%
    07:00 -21°C° 0 mm 2 m/s 570 mmHg 91%
    08:00 -18°C° 0 mm 2 m/s 571 mmHg 91%
    09:00 -16°C° 0 mm 2 m/s 573 mmHg 92%
    10:00 -14°C° 0 mm 2 m/s 574 mmHg 92%
    11:00 -10°C° 0 mm 1 m/s 575 mmHg 92%
    12:00 -8°C° 0 mm 1 m/s 576 mmHg 93%
    13:00 -7°C° 0 mm 1 m/s 576 mmHg 93%
    14:00 -8°C° 0 mm 1 m/s 576 mmHg 94%
    15:00 -9°C° 0 mm 1 m/s 575 mmHg 95%
    16:00 -11°C° 0 mm 1 m/s 574 mmHg 95%
    17:00 -13°C° 0 mm 1 m/s 572 mmHg 95%
    18:00 -16°C° 0 mm 1 m/s 571 mmHg 94%
    19:00 -20°C° 0 mm 2 m/s 569 mmHg 94%
    20:00 -20°C° 0 mm 2 m/s 570 mmHg 93%
    21:00 -20°C° 0 mm 2 m/s 570 mmHg 92%
    22:00 -19°C° 0 mm 2 m/s 571 mmHg 92%
    23:00 -19°C° 0 mm 2 m/s 571 mmHg 92%

    21 Ianuarie, Sâmbătă

    Timp Temperatura Precipitaţii Vânt Presiune Umiditate
    00:00 -19°C° 0 mm 2 m/s 571 mmHg 91%
    01:00 -19°C° 0 mm 2 m/s 570 mmHg 91%
    02:00 -19°C° 0 mm 2 m/s 570 mmHg 91%
    03:00 -19°C° 0 mm 2 m/s 570 mmHg 91%
    04:00 -19°C° 0 mm 2 m/s 570 mmHg 90%
    05:00 -19°C° 0 mm 2 m/s 570 mmHg 90%
    06:00 -19°C° 0 mm 2 m/s 570 mmHg 90%
    07:00 -19°C° 0 mm 2 m/s 570 mmHg 89%
    08:00 -17°C° 0 mm 2 m/s 571 mmHg 90%
    09:00 -15°C° 0 mm 2 m/s 573 mmHg 91%
    10:00 -13°C° 0 mm 2 m/s 574 mmHg 91%
    11:00 -9°C° 0 mm 1 m/s 575 mmHg 92%
    12:00 -7°C° 0 mm 1 m/s 576 mmHg 93%
    13:00 -6°C° 0 mm 1 m/s 576 mmHg 94%
    14:00 -7°C° 0 mm 1 m/s 575 mmHg 94%
    15:00 -8°C° 0 mm 1 m/s 574 mmHg 95%
    16:00 -9°C° 0 mm 1 m/s 574 mmHg 95%
    17:00 -12°C° 0 mm 1 m/s 572 mmHg 94%
    18:00 -14°C° 0 mm 1 m/s 571 mmHg 94%
    19:00 -19°C° 0 mm 2 m/s 570 mmHg 93%
    20:00 -19°C° 0 mm 2 m/s 570 mmHg 93%
    21:00 -18°C° 0 mm 2 m/s 570 mmHg 92%
    22:00 -18°C° 0 mm 2 m/s 571 mmHg 92%
    23:00 -18°C° 0 mm 2 m/s 571 mmHg 92%

    22 Ianuarie, Duminică

    Timp Temperatura Precipitaţii Vânt Presiune Umiditate
    00:00 -19°C° 0 mm 2 m/s 570 mmHg 92%
    01:00 -19°C° 0 mm 2 m/s 570 mmHg 92%
    02:00 -19°C° 0 mm 2 m/s 570 mmHg 91%
    03:00 -19°C° 0 mm 2 m/s 570 mmHg 91%
    04:00 -19°C° 0 mm 2 m/s 570 mmHg 91%
    05:00 -19°C° 0 mm 2 m/s 570 mmHg 91%
    06:00 -19°C° 0 mm 2 m/s 570 mmHg 90%
    07:00 -19°C° 0 mm 2 m/s 570 mmHg 90%
    08:00 -16°C° 0 mm 2 m/s 571 mmHg 91%
    09:00 -14°C° 0 mm 2 m/s 573 mmHg 91%
    10:00 -12°C° 0 mm 2 m/s 574 mmHg 91%
    11:00 -10°C° 0 mm 2 m/s 574 mmHg 92%
    12:00 -8°C° 0 mm 2 m/s 575 mmHg 93%
    13:00 -6°C° 0 mm 2 m/s 575 mmHg 94%
    14:00 -7°C° 0 mm 2 m/s 575 mmHg 94%
    15:00 -8°C° 0 mm 2 m/s 574 mmHg 94%
    16:00 -8°C° 0 mm 2 m/s 574 mmHg 94%
    17:00 -10°C° 0 mm 2 m/s 573 mmHg 94%
    18:00 -13°C° 0 mm 2 m/s 572 mmHg 94%
    19:00 -15°C° 0 mm 2 m/s 571 mmHg 94%
    20:00 -15°C° 0 mm 2 m/s 571 mmHg 94%
    21:00 -15°C° 0 mm 2 m/s 572 mmHg 94%
    22:00 -15°C° 0 mm 2 m/s 572 mmHg 94%
    23:00 -15°C° 0 mm 2 m/s 572 mmHg 94%

    23 Ianuarie, Luni

    Timp Temperatura Precipitaţii Vânt Presiune Umiditate
    00:00 -15°C° 0 mm 2 m/s 571 mmHg 94%
    01:00 -15°C° 0 mm 2 m/s 571 mmHg 94%
    02:00 -15°C° 0 mm 2 m/s 571 mmHg 94%
    03:00 -14°C° 0 mm 2 m/s 571 mmHg 94%
    04:00 -14°C° 0 mm 2 m/s 571 mmHg 94%
    05:00 -15°C° 0 mm 2 m/s 571 mmHg 94%
    06:00 -15°C° 0 mm 2 m/s 571 mmHg 94%
    07:00 -15°C° 0 mm 2 m/s 570 mmHg 95%
    08:00 -13°C° 0 mm 2 m/s 572 mmHg 94%
    09:00 -9°C° 0 mm 1 m/s 573 mmHg 94%
    10:00 -7°C° 0 mm 1 m/s 574 mmHg 94%
    11:00 -6°C° 0 mm 1 m/s 575 mmHg 95%
    12:00 -4°C° 0 mm 1 m/s 575 mmHg 95%
    13:00 -3°C° 0 mm 1 m/s 575 mmHg 96%
    14:00 -5°C° 0 mm 0 m/s 574 mmHg 96%
    15:00 -6°C° 0 mm 0 m/s 574 mmHg 96%
    16:00 -7°C° 0 mm 0 m/s 573 mmHg 96%
    17:00 -11°C° 0 mm 0 m/s 571 mmHg 97%
    18:00 -15°C° 0 mm 0 m/s 568 mmHg 98%
    19:00 -19°C° 0 mm 0 m/s 566 mmHg 99%
    20:00 -19°C° 0 mm 0 m/s 566 mmHg 99%
    21:00 -20°C° 0 mm 0 m/s 566 mmHg 99%
    22:00 -20°C° 0 mm 0 m/s 566 mmHg 98%
    23:00 -20°C° 0 mm 0 m/s 566 mmHg 98%
    Arată mai mult